EWG109 EHAM-EDDC

Flight info

Callsign EWG109
Flight time 1h 8m
Altitude 37000
Route ARNEM L620 BIRKA Z21 RIVSA
Aircraft A320/M-SDE3FGHIRWY/LB1

Departure

Time 2026-05-07 10:27
Airport Amsterdam Airport Schiphol (EHAM)

Arrival

Time 2026-05-07 11:35
Airport Dresden Airport (EDDC)
Time Latitude Longitude Altitude Speed Heading
2026-05-07 09:55 52.30714 4.77026 -1 ft 0 kts
2026-05-07 09:56 52.30718 4.77026 -1 ft 0 kts
2026-05-07 10:11 52.30715 4.77026 -1 ft 3 kts
2026-05-07 10:11 52.30694 4.77024 -1 ft 2 kts 355°
2026-05-07 10:12 52.30674 4.77032 -1 ft 2 kts 317°
2026-05-07 10:12 52.30661 4.77059 -1 ft 1 kts 303°
2026-05-07 10:12 52.30661 4.77060 -1 ft 0 kts 303°
2026-05-07 10:15 52.30662 4.77057 -1 ft 2 kts 299°
2026-05-07 10:15 52.30657 4.77016 -1 ft 6 kts 239°
2026-05-07 10:15 52.30624 4.77012 -1 ft 7 kts 159°
2026-05-07 10:16 52.30600 4.77034 -1 ft 8 kts 148°
2026-05-07 10:16 52.30543 4.77103 -1 ft 13 kts 132°
2026-05-07 10:16 52.30572 4.77243 -1 ft 16 kts 58°
2026-05-07 10:17 52.30638 4.77414 -1 ft 17 kts 56°
2026-05-07 10:17 52.30711 4.77458 -1 ft 16 kts
2026-05-07 10:17 52.30742 4.77459 -1 ft 18 kts
2026-05-07 10:17 52.30881 4.77471 -1 ft 22 kts
2026-05-07 10:18 52.31049 4.77487 -1 ft 26 kts
2026-05-07 10:18 52.31241 4.77504 -1 ft 28 kts
2026-05-07 10:18 52.31340 4.77429 -1 ft 17 kts 308°
2026-05-07 10:18 52.31426 4.77252 -1 ft 22 kts 313°
2026-05-07 10:19 52.31482 4.77025 -1 ft 24 kts 266°
2026-05-07 10:19 52.31472 4.76725 -1 ft 29 kts 266°
2026-05-07 10:19 52.31461 4.76395 -1 ft 29 kts 267°
2026-05-07 10:19 52.31450 4.76085 -1 ft 26 kts 265°
2026-05-07 10:20 52.31440 4.75802 -1 ft 25 kts 268°
2026-05-07 10:20 52.31428 4.75505 -1 ft 27 kts 266°
2026-05-07 10:20 52.31417 4.75187 -1 ft 29 kts 266°
2026-05-07 10:20 52.31407 4.74851 -1 ft 30 kts 268°
2026-05-07 10:21 52.31399 4.74505 -1 ft 27 kts 269°
2026-05-07 10:21 52.31395 4.74356 -1 ft 6 kts 267°
2026-05-07 10:21 52.31382 4.74296 -1 ft 9 kts 224°
2026-05-07 10:21 52.31239 4.74269 -1 ft 25 kts 183°
2026-05-07 10:22 52.31062 4.74252 -1 ft 25 kts 184°
2026-05-07 10:22 52.30878 4.74236 -1 ft 28 kts 183°
2026-05-07 10:22 52.30687 4.74216 -1 ft 27 kts 183°
2026-05-07 10:22 52.30514 4.74202 -1 ft 22 kts 182°
2026-05-07 10:23 52.30384 4.74180 -1 ft 7 kts 219°
2026-05-07 10:23 52.30363 4.74114 -1 ft 7 kts 244°
2026-05-07 10:23 52.30306 4.74013 -1 ft 18 kts 212°
2026-05-07 10:23 52.30218 4.73909 -1 ft 10 kts 217°
2026-05-07 10:24 52.30216 4.73907 -1 ft 0 kts 217°
2026-05-07 10:25 52.30205 4.73893 -1 ft 4 kts 219°
2026-05-07 10:25 52.30200 4.73760 -2 ft 16 kts 317°
2026-05-07 10:26 52.30314 4.73750 -4 ft 15 kts
2026-05-07 10:26 52.30436 4.73758 -3 ft 26 kts
2026-05-07 10:26 52.30895 4.73803 -1 ft 102 kts
2026-05-07 10:26 52.31813 4.73886 1 ft 159 kts
2026-05-07 10:27 52.33032 4.73998 276 ft 183 kts
2026-05-07 10:27 52.34303 4.74280 1014 ft 183 kts 16°
2026-05-07 10:27 52.35530 4.75034 1667 ft 195 kts 23°
2026-05-07 10:27 52.36834 4.75982 2120 ft 215 kts 24°
2026-05-07 10:28 52.38155 4.77295 2811 ft 229 kts 44°
2026-05-07 10:28 52.39239 4.79236 3727 ft 232 kts 47°
2026-05-07 10:28 52.40367 4.81207 4476 ft 247 kts 46°
2026-05-07 10:28 52.41565 4.83339 5303 ft 259 kts 52°
2026-05-07 10:29 52.42334 4.86285 6304 ft 269 kts 82°
2026-05-07 10:29 52.42393 4.89185 7175 ft 274 kts 90°
2026-05-07 10:29 52.42401 4.92327 8106 ft 279 kts 90°
2026-05-07 10:30 52.41545 4.98611 9994 ft 288 kts 118°
2026-05-07 10:30 52.40672 5.01653 10572 ft 306 kts 112°
2026-05-07 10:30 52.39913 5.05048 10972 ft 327 kts 109°
2026-05-07 10:30 52.39204 5.08656 11687 ft 336 kts 108°
2026-05-07 10:31 52.38512 5.12282 12517 ft 341 kts 108°
2026-05-07 10:31 52.37776 5.16060 13350 ft 346 kts 108°
2026-05-07 10:31 52.37018 5.19830 14110 ft 352 kts 108°
2026-05-07 10:31 52.36225 5.23661 14806 ft 357 kts 109°
2026-05-07 10:32 52.35410 5.27508 15540 ft 360 kts 109°
2026-05-07 10:32 52.34574 5.31394 16297 ft 363 kts 109°
2026-05-07 10:32 52.33724 5.35310 17018 ft 367 kts 110°
2026-05-07 10:32 52.32867 5.39261 17732 ft 371 kts 110°
2026-05-07 10:33 52.32003 5.43256 18430 ft 375 kts 110°
2026-05-07 10:33 52.31117 5.47357 19068 ft 378 kts 109°
2026-05-07 10:33 52.30242 5.51421 19692 ft 381 kts 110°
2026-05-07 10:33 52.29356 5.55535 20279 ft 386 kts 110°
2026-05-07 10:34 52.28458 5.59683 20891 ft 389 kts 110°
2026-05-07 10:34 52.27549 5.63851 21486 ft 391 kts 110°
2026-05-07 10:34 52.26632 5.68045 22068 ft 394 kts 110°
2026-05-07 10:34 52.25702 5.72287 22624 ft 398 kts 110°
2026-05-07 10:35 52.24766 5.76548 23203 ft 401 kts 110°
2026-05-07 10:35 52.23813 5.80895 23772 ft 404 kts 110°
2026-05-07 10:35 52.22859 5.85245 24220 ft 407 kts 110°
2026-05-07 10:35 52.21902 5.89615 24662 ft 411 kts 110°
2026-05-07 10:36 52.20923 5.94076 25119 ft 414 kts 110°
2026-05-07 10:36 52.19947 5.98499 25583 ft 416 kts 110°
2026-05-07 10:36 52.18961 6.02950 26023 ft 419 kts 110°
2026-05-07 10:36 52.17966 6.07426 26450 ft 422 kts 110°
2026-05-07 10:37 52.16962 6.11932 26894 ft 424 kts 110°
2026-05-07 10:37 52.15951 6.16460 27326 ft 427 kts 110°
2026-05-07 10:37 52.14931 6.21019 27744 ft 430 kts 110°
2026-05-07 10:37 52.13887 6.25662 28151 ft 432 kts 110°
2026-05-07 10:38 52.12835 6.30329 28604 ft 435 kts 110°
2026-05-07 10:38 52.11791 6.34961 29013 ft 437 kts 110°
2026-05-07 10:38 52.10727 6.39678 29409 ft 440 kts 110°
2026-05-07 10:38 52.09669 6.44364 29821 ft 442 kts 110°
2026-05-07 10:39 52.08966 6.47474 30089 ft 444 kts 110°
2026-05-07 10:39 52.07895 6.52197 30416 ft 446 kts 110°
2026-05-07 10:39 52.06815 6.56950 30713 ft 449 kts 110°
2026-05-07 10:39 52.05733 6.61703 31032 ft 451 kts 110°
2026-05-07 10:40 52.04638 6.66500 31348 ft 453 kts 110°
2026-05-07 10:40 52.03539 6.71290 31641 ft 455 kts 110°
2026-05-07 10:40 52.02451 6.76122 31971 ft 456 kts 108°
2026-05-07 10:40 52.01628 6.81087 32421 ft 454 kts 104°
2026-05-07 10:41 52.00855 6.86051 32856 ft 453 kts 104°
2026-05-07 10:41 52.00079 6.90998 33285 ft 452 kts 104°
2026-05-07 10:41 51.99298 6.95942 33767 ft 450 kts 104°
2026-05-07 10:41 51.98521 7.00841 34190 ft 449 kts 104°
2026-05-07 10:42 51.97739 7.05744 34502 ft 449 kts 104°
2026-05-07 10:42 51.96949 7.10651 34804 ft 449 kts 105°
2026-05-07 10:42 51.96122 7.15530 35112 ft 450 kts 106°
2026-05-07 10:42 51.95237 7.20404 35365 ft 451 kts 107°
2026-05-07 10:43 51.94317 7.25266 35650 ft 451 kts 107°
2026-05-07 10:43 51.93384 7.30114 35952 ft 451 kts 108°
2026-05-07 10:43 51.92449 7.34975 36219 ft 452 kts 108°
2026-05-07 10:43 51.91523 7.39838 36469 ft 452 kts 107°
2026-05-07 10:44 51.90605 7.44707 36745 ft 452 kts 107°
2026-05-07 10:44 51.89694 7.49580 36978 ft 453 kts 107°
2026-05-07 10:44 51.87870 7.59335 37044 ft 451 kts 107°
2026-05-07 10:45 51.86032 7.69019 37049 ft 450 kts 108°
2026-05-07 10:45 51.84383 7.78796 37045 ft 450 kts 103°
2026-05-07 10:46 51.83042 7.88687 37042 ft 451 kts 102°
2026-05-07 10:46 51.81722 7.98594 37037 ft 451 kts 103°
2026-05-07 10:47 51.80313 8.08459 37033 ft 451 kts 104°
2026-05-07 10:47 51.78857 8.18303 37031 ft 451 kts 104°
2026-05-07 10:48 51.77396 8.28143 37033 ft 451 kts 104°
2026-05-07 10:48 51.75957 8.37987 37029 ft 451 kts 103°
2026-05-07 10:49 51.74608 8.47880 37028 ft 451 kts 103°
2026-05-07 10:49 51.73263 8.57849 37026 ft 451 kts 103°
2026-05-07 10:50 51.71889 8.67732 37030 ft 452 kts 103°
2026-05-07 10:50 51.70499 8.77602 37021 ft 452 kts 104°
2026-05-07 10:51 51.69097 8.87481 37024 ft 452 kts 104°
2026-05-07 10:51 51.67695 8.97357 37024 ft 452 kts 104°
2026-05-07 10:52 51.66288 9.07217 37022 ft 452 kts 104°
2026-05-07 10:52 51.64869 9.17081 37016 ft 452 kts 104°
2026-05-07 10:53 51.63435 9.26942 37016 ft 452 kts 104°
2026-05-07 10:53 51.62224 9.36935 37013 ft 453 kts 93°
2026-05-07 10:54 51.62000 9.47075 37023 ft 453 kts 92°
2026-05-07 10:54 51.61798 9.57209 37023 ft 453 kts 93°
2026-05-07 10:55 51.61581 9.67360 37025 ft 453 kts 93°
2026-05-07 10:55 51.61351 9.77490 37007 ft 453 kts 93°
2026-05-07 10:56 51.61117 9.87614 37009 ft 453 kts 93°
2026-05-07 10:56 51.60874 9.97643 37009 ft 453 kts 93°
2026-05-07 10:57 51.60616 10.07771 37011 ft 453 kts 93°
2026-05-07 10:57 51.60352 10.17892 36999 ft 453 kts 94°
2026-05-07 10:58 51.60080 10.28016 37004 ft 453 kts 94°
2026-05-07 10:58 51.59801 10.38123 37007 ft 452 kts 94°
2026-05-07 10:59 51.59505 10.48286 37003 ft 452 kts 94°
2026-05-07 10:59 51.59207 10.58376 37004 ft 452 kts 94°
2026-05-07 11:00 51.58898 10.68502 36999 ft 452 kts 94°
2026-05-07 11:00 51.58580 10.78566 37018 ft 452 kts 94°
2026-05-07 11:01 51.58257 10.88640 37021 ft 451 kts 94°
2026-05-07 11:01 51.57925 10.98724 37016 ft 451 kts 94°
2026-05-07 11:02 51.57578 11.08799 37016 ft 451 kts 94°
2026-05-07 11:02 51.57231 11.18856 36997 ft 451 kts 95°
2026-05-07 11:03 51.56876 11.28929 37006 ft 451 kts 95°
2026-05-07 11:03 51.56691 11.33972 36801 ft 452 kts 95°
2026-05-07 11:03 51.56505 11.39018 36552 ft 451 kts 95°
2026-05-07 11:04 51.56317 11.44041 36296 ft 451 kts 95°
2026-05-07 11:04 51.56128 11.49072 36047 ft 450 kts 95°
2026-05-07 11:04 51.55938 11.54091 35798 ft 450 kts 95°
2026-05-07 11:04 51.55745 11.59177 35554 ft 450 kts 95°
2026-05-07 11:05 51.55551 11.64208 35297 ft 450 kts 95°
2026-05-07 11:05 51.55356 11.69166 35062 ft 450 kts 95°
2026-05-07 11:05 51.55157 11.74187 34820 ft 450 kts 95°
2026-05-07 11:05 51.54951 11.79269 34431 ft 450 kts 95°
2026-05-07 11:06 51.54745 11.84285 33789 ft 449 kts 95°
2026-05-07 11:06 51.54541 11.89266 33180 ft 444 kts 95°
2026-05-07 11:06 51.54337 11.94184 32598 ft 439 kts 95°
2026-05-07 11:06 51.54133 11.99046 32029 ft 434 kts 95°
2026-05-07 11:07 51.53928 12.03862 31455 ft 429 kts 95°
2026-05-07 11:07 51.53726 12.08598 30899 ft 423 kts 95°
2026-05-07 11:07 51.53525 12.13293 30352 ft 419 kts 94°
2026-05-07 11:07 51.53326 12.17923 29780 ft 414 kts 94°
2026-05-07 11:08 51.53123 12.22508 29239 ft 407 kts 94°
2026-05-07 11:08 51.52919 12.27019 28743 ft 401 kts 94°
2026-05-07 11:08 51.52719 12.31448 28244 ft 395 kts 94°
2026-05-07 11:08 51.52523 12.35800 27764 ft 389 kts 94°
2026-05-07 11:09 51.52328 12.40111 27283 ft 383 kts 94°
2026-05-07 11:09 51.52141 12.44216 26846 ft 377 kts 94°
2026-05-07 11:09 51.51947 12.48394 26400 ft 372 kts 94°
2026-05-07 11:09 51.51756 12.52510 25958 ft 368 kts 94°
2026-05-07 11:10 51.51566 12.56582 25520 ft 363 kts 94°
2026-05-07 11:10 51.51378 12.60598 25085 ft 360 kts 94°
2026-05-07 11:10 51.51189 12.64584 24635 ft 357 kts 95°
2026-05-07 11:10 51.50999 12.68546 24188 ft 354 kts 95°
2026-05-07 11:11 51.50809 12.72475 23731 ft 353 kts 95°
2026-05-07 11:11 51.50682 12.75077 23399 ft 352 kts 95°
2026-05-07 11:11 51.50492 12.78977 22906 ft 349 kts 95°
2026-05-07 11:11 51.50304 12.82851 22448 ft 347 kts 95°
2026-05-07 11:12 51.50118 12.86674 21995 ft 344 kts 95°
2026-05-07 11:12 51.49926 12.90556 21533 ft 342 kts 96°
2026-05-07 11:12 51.49738 12.94303 21089 ft 340 kts 96°
2026-05-07 11:12 51.49546 12.98084 20642 ft 339 kts 96°
2026-05-07 11:13 51.49352 13.01894 20191 ft 338 kts 96°
2026-05-07 11:13 51.49162 13.05601 19747 ft 337 kts 96°
2026-05-07 11:13 51.48968 13.09349 19300 ft 337 kts 97°
2026-05-07 11:13 51.48772 13.13088 18871 ft 336 kts 97°
2026-05-07 11:14 51.48574 13.16871 18407 ft 336 kts 97°
2026-05-07 11:14 51.48377 13.20606 17942 ft 336 kts 97°
2026-05-07 11:14 51.48182 13.24337 17500 ft 335 kts 97°
2026-05-07 11:14 51.47990 13.27995 17073 ft 333 kts 97°
2026-05-07 11:15 51.47790 13.31742 16645 ft 332 kts 97°
2026-05-07 11:15 51.47594 13.35374 16217 ft 331 kts 97°
2026-05-07 11:15 51.47392 13.39099 15790 ft 330 kts 97°
2026-05-07 11:15 51.47193 13.42755 15369 ft 330 kts 97°
2026-05-07 11:16 51.46992 13.46424 14951 ft 330 kts 97°
2026-05-07 11:16 51.46794 13.50081 14525 ft 329 kts 97°
2026-05-07 11:16 51.46586 13.53787 13725 ft 340 kts 99°
2026-05-07 11:16 51.45939 13.57386 12758 ft 333 kts 121°
2026-05-07 11:17 51.44519 13.60189 12059 ft 319 kts 143°
2026-05-07 11:17 51.42639 13.61892 11396 ft 306 kts 164°
2026-05-07 11:17 51.40578 13.62397 10750 ft 295 kts 183°
2026-05-07 11:17 51.38551 13.62274 10136 ft 288 kts 184°
2026-05-07 11:18 51.36584 13.62147 9606 ft 279 kts 184°
2026-05-07 11:18 51.34668 13.62021 9047 ft 271 kts 184°
2026-05-07 11:18 51.32809 13.61899 8508 ft 264 kts 184°
2026-05-07 11:18 51.30955 13.61776 7983 ft 267 kts 184°
2026-05-07 11:19 51.29092 13.61654 7530 ft 268 kts 184°
2026-05-07 11:19 51.27222 13.61533 7081 ft 269 kts 184°
2026-05-07 11:19 51.25351 13.61413 6638 ft 269 kts 184°
2026-05-07 11:19 51.23480 13.61291 6192 ft 269 kts 184°
2026-05-07 11:20 51.21617 13.61168 5811 ft 265 kts 184°
2026-05-07 11:20 51.19790 13.61053 5480 ft 260 kts 183°
2026-05-07 11:20 51.17997 13.60944 5147 ft 256 kts 183°
2026-05-07 11:20 51.16238 13.60834 4817 ft 251 kts 183°
2026-05-07 11:21 51.14510 13.60724 4535 ft 245 kts 184°
2026-05-07 11:21 51.12802 13.60617 4276 ft 247 kts 183°
2026-05-07 11:21 51.11076 13.60507 4017 ft 249 kts 183°
2026-05-07 11:21 51.09344 13.60395 3760 ft 249 kts 183°
2026-05-07 11:22 51.07612 13.60282 3507 ft 249 kts 182°
2026-05-07 11:22 51.05874 13.60168 3284 ft 241 kts 182°
2026-05-07 11:22 51.04259 13.60064 3282 ft 224 kts 182°
2026-05-07 11:22 51.02754 13.59947 3277 ft 210 kts 187°
2026-05-07 11:23 51.01377 13.59395 3215 ft 200 kts 203°
2026-05-07 11:23 51.00194 13.58323 3121 ft 193 kts 217°
2026-05-07 11:23 50.99167 13.57118 3049 ft 180 kts 217°
2026-05-07 11:23 50.98183 13.55979 2997 ft 165 kts 216°
2026-05-07 11:24 50.97281 13.54940 2999 ft 162 kts 216°
2026-05-07 11:24 50.96334 13.53846 2999 ft 176 kts 216°
2026-05-07 11:24 50.95338 13.52697 3002 ft 178 kts 216°
2026-05-07 11:24 50.94322 13.51524 2999 ft 178 kts 216°
2026-05-07 11:25 50.93333 13.50382 3002 ft 179 kts 216°
2026-05-07 11:25 50.92330 13.49224 2991 ft 177 kts 216°
2026-05-07 11:25 50.91324 13.48219 2980 ft 161 kts 200°
2026-05-07 11:25 50.90287 13.47995 3004 ft 146 kts 174°
2026-05-07 11:26 50.89344 13.48479 2990 ft 142 kts 148°
2026-05-07 11:26 50.88642 13.49511 2989 ft 139 kts 124°
2026-05-07 11:26 50.88262 13.50919 2987 ft 138 kts 99°
2026-05-07 11:26 50.88277 13.52425 2989 ft 137 kts 76°
2026-05-07 11:27 50.88672 13.53781 2987 ft 136 kts 52°
2026-05-07 11:27 50.89378 13.54763 2987 ft 136 kts 28°
2026-05-07 11:27 50.90271 13.55219 2993 ft 135 kts
2026-05-07 11:27 50.91206 13.55427 2994 ft 136 kts
2026-05-07 11:28 50.92141 13.55641 2995 ft 136 kts
2026-05-07 11:28 50.93076 13.55854 2998 ft 136 kts
2026-05-07 11:28 50.94009 13.56072 2998 ft 136 kts
2026-05-07 11:28 50.94944 13.56289 2999 ft 135 kts
2026-05-07 11:29 50.95866 13.56503 3000 ft 135 kts
2026-05-07 11:29 50.96809 13.56720 2997 ft 135 kts
2026-05-07 11:29 50.97745 13.56935 3001 ft 136 kts
2026-05-07 11:29 50.98678 13.57162 3000 ft 136 kts 12°
2026-05-07 11:30 50.99468 13.57932 3000 ft 136 kts 43°
2026-05-07 11:30 51.00214 13.58858 3004 ft 136 kts 36°
2026-05-07 11:30 51.00956 13.59783 3008 ft 136 kts 38°
2026-05-07 11:30 51.01685 13.60734 3005 ft 136 kts 39°
2026-05-07 11:31 51.02408 13.61701 3009 ft 135 kts 40°
2026-05-07 11:31 51.03121 13.62666 3008 ft 135 kts 40°
2026-05-07 11:31 51.03834 13.63634 2967 ft 135 kts 40°
2026-05-07 11:31 51.04545 13.64605 2844 ft 134 kts 40°
2026-05-07 11:32 51.05944 13.66517 2519 ft 131 kts 40°
2026-05-07 11:32 51.06630 13.67457 2355 ft 129 kts 40°
2026-05-07 11:32 51.07302 13.68378 2169 ft 127 kts 40°
2026-05-07 11:33 51.07969 13.69292 1994 ft 127 kts 40°
2026-05-07 11:33 51.08637 13.70208 1826 ft 127 kts 40°
2026-05-07 11:33 51.09302 13.71120 1653 ft 126 kts 40°
2026-05-07 11:33 51.09972 13.72040 1457 ft 125 kts 39°
2026-05-07 11:34 51.10632 13.72947 1277 ft 125 kts 40°
2026-05-07 11:34 51.11291 13.73851 1024 ft 125 kts 40°
2026-05-07 11:34 51.11947 13.74745 839 ft 124 kts 40°
2026-05-07 11:34 51.12601 13.75638 738 ft 124 kts 42°
2026-05-07 11:35 51.13206 13.76493 716 ft 100 kts 41°
2026-05-07 11:35 51.13649 13.77107 714 ft 71 kts 39°
2026-05-07 11:35 51.13937 13.77490 714 ft 33 kts 40°
2026-05-07 11:35 51.14126 13.77750 713 ft 42 kts 41°
2026-05-07 11:36 51.14331 13.78038 716 ft 34 kts 41°
2026-05-07 11:36 51.14388 13.78197 713 ft 4 kts 118°
2026-05-07 11:36 51.14314 13.78274 713 ft 20 kts 129°
2026-05-07 11:36 51.14219 13.78366 711 ft 10 kts 198°
2026-05-07 11:37 51.14185 13.78310 714 ft 8 kts 225°
2026-05-07 11:37 51.14099 13.78191 712 ft 19 kts 220°
2026-05-07 11:37 51.14004 13.78060 714 ft 17 kts 220°
2026-05-07 11:37 51.13917 13.77943 714 ft 16 kts 220°
2026-05-07 11:38 51.13844 13.77840 714 ft 12 kts 221°
2026-05-07 11:38 51.13739 13.77701 714 ft 26 kts 221°
2026-05-07 11:38 51.13616 13.77526 716 ft 18 kts 222°
2026-05-07 11:38 51.13534 13.77414 716 ft 13 kts 220°
2026-05-07 11:39 51.13469 13.77326 715 ft 15 kts 221°
2026-05-07 11:39 51.13345 13.77156 712 ft 26 kts 220°
2026-05-07 11:39 51.13209 13.76969 713 ft 26 kts 221°
2026-05-07 11:39 51.13077 13.76787 715 ft 25 kts 220°
2026-05-07 11:40 51.12949 13.76611 712 ft 24 kts 221°
2026-05-07 11:40 51.12829 13.76447 713 ft 21 kts 220°
2026-05-07 11:40 51.12733 13.76313 712 ft 14 kts 221°
2026-05-07 11:40 51.12688 13.76298 712 ft 5 kts 142°
2026-05-07 11:41 51.12670 13.76326 713 ft 4 kts 134°
2026-05-07 11:41 51.12654 13.76355 714 ft 3 kts 131°
2026-05-07 11:41 51.12636 13.76389 713 ft 7 kts 131°
2026-05-07 11:41 51.12627 13.76406 713 ft 0 kts 131°